| time (UTC) | temp F | wind direction | speed MPH | gust MPH | rain 1hr in | rain 24hr in | rain mn in | humidity % | barometer mb |
| 20260504050741 | 57 | 299 | 0.0 | 3.0 | 0.00 | 0.00 | 0.00 | 40 | 1014.7 |
| 20260504050240 | 57 | 299 | 1.0 | 3.0 | 0.00 | 0.00 | 0.00 | 41 | 1014.7 |
| 20260504045740 | 57 | 299 | 0.0 | 0.0 | 0.00 | 0.00 | 0.00 | 41 | 1014.7 |
| 20260504045240 | 57 | 299 | 0.0 | 1.0 | 0.00 | 0.00 | 0.00 | 42 | 1014.6 |
| 20260504044740 | 57 | 299 | 0.0 | 1.0 | 0.00 | 0.00 | 0.00 | 42 | 1014.7 |
| 20260504044240 | 57 | 299 | 0.0 | 0.0 | 0.00 | 0.00 | 0.00 | 42 | 1014.7 |
| 20260504043239 | 57 | 299 | 0.0 | 0.0 | 0.00 | 0.00 | 0.00 | 43 | 1014.6 |
| 20260504042739 | 57 | 299 | 0.0 | 0.0 | 0.00 | 0.00 | 0.00 | 43 | 1014.6 |
| 20260504042241 | 57 | 299 | 0.0 | 0.0 | 0.00 | 0.00 | 0.00 | 44 | 1014.4 |
| 20260504041239 | 58 | 299 | 0.0 | 2.0 | 0.00 | 0.00 | 0.00 | 44 | 1014.0 |
| 20260504040739 | 58 | 299 | 0.0 | 2.0 | 0.00 | 0.00 | 0.00 | 45 | 1013.9 |
| 20260504040239 | 58 | 299 | 0.0 | 0.0 | 0.00 | 0.00 | 0.00 | 45 | 1013.9 |
| 20260504035739 | 58 | 299 | 0.0 | 0.0 | 0.00 | 0.00 | 0.00 | 45 | 1013.9 |
| 20260504035239 | 58 | 299 | 0.0 | 0.0 | 0.00 | 0.00 | 0.00 | 45 | 1013.8 |
| 20260504034739 | 58 | 299 | 0.0 | 0.0 | 0.00 | 0.00 | 0.00 | 46 | 1013.7 |
| 20260504034239 | 58 | 299 | 0.0 | 2.0 | 0.00 | 0.00 | 0.00 | 46 | 1013.5 |
| 20260504033238 | 58 | 299 | 0.0 | 9.0 | 0.00 | 0.00 | 0.00 | 46 | 1013.4 |
| 20260504032739 | 59 | 299 | 1.0 | 9.0 | 0.00 | 0.00 | 0.00 | 46 | 1013.4 |
| 20260504031239 | 59 | 307 | 1.0 | 5.0 | 0.00 | 0.00 | 0.00 | 47 | 1013.3 |
| 20260504030738 | 59 | 309 | 2.0 | 6.0 | 0.00 | 0.00 | 0.00 | 47 | 1013.2 |
| 20260504030238 | 59 | 291 | 4.0 | 6.0 | 0.00 | 0.00 | 0.00 | 47 | 1013.2 |
| 20260504025738 | 60 | 300 | 0.0 | 7.0 | 0.00 | 0.00 | 0.00 | 46 | 1013.2 |
| 20260504025238 | 60 | 300 | 3.0 | 7.0 | 0.00 | 0.00 | 0.00 | 46 | 1013.0 |
| 20260504024739 | 60 | 302 | 2.0 | 7.0 | 0.00 | 0.00 | 0.00 | 46 | 1013.0 |
| 20260504024238 | 60 | 302 | 0.0 | 5.0 | 0.00 | 0.00 | 0.00 | 46 | 1013.1 |
| 20260504023738 | 60 | 302 | 0.0 | 7.0 | 0.00 | 0.00 | 0.00 | 45 | 1012.9 |
| 20260504023238 | 60 | 302 | 0.0 | 8.0 | 0.00 | 0.00 | 0.00 | 45 | 1012.9 |
| 20260504022737 | 61 | 306 | 0.0 | 8.0 | 0.00 | 0.00 | 0.00 | 45 | 1012.8 |
| 20260504022237 | 61 | 295 | 0.0 | 10.0 | 0.00 | 0.00 | 0.00 | 45 | 1012.9 |
| 20260504021738 | 61 | 277 | 3.0 | 10.0 | 0.00 | 0.00 | 0.00 | 45 | 1012.9 |
| 20260504021238 | 61 | 286 | 1.0 | 9.0 | 0.00 | 0.00 | 0.00 | 46 | 1012.7 |
| 20260504020738 | 61 | 302 | 3.0 | 10.0 | 0.00 | 0.00 | 0.00 | 46 | 1012.6 |
| 20260504020237 | 62 | 302 | 2.0 | 10.0 | 0.00 | 0.00 | 0.00 | 45 | 1012.6 |
| 20260504015738 | 62 | 277 | 1.0 | 6.0 | 0.00 | 0.00 | 0.00 | 45 | 1012.6 |
| 20260504015238 | 62 | 296 | 3.0 | 7.0 | 0.00 | 0.00 | 0.00 | 45 | 1012.6 |
| 20260504014737 | 62 | 296 | 0.0 | 7.0 | 0.00 | 0.00 | 0.00 | 45 | 1012.7 |
| 20260504014237 | 62 | 288 | 0.0 | 6.0 | 0.00 | 0.00 | 0.00 | 45 | 1012.7 |
| 20260504013737 | 62 | 299 | 5.0 | 6.0 | 0.00 | 0.00 | 0.00 | 45 | 1012.4 |
| 20260504013237 | 62 | 302 | 0.0 | 6.0 | 0.00 | 0.00 | 0.00 | 45 | 1012.3 |
| 20260504012737 | 62 | 234 | 0.0 | 7.0 | 0.00 | 0.00 | 0.00 | 45 | 1012.3 |
| 20260504012237 | 62 | 304 | 0.0 | 9.0 | 0.00 | 0.00 | 0.00 | 45 | 1012.3 |
| 20260504011737 | 62 | 306 | 3.0 | 11.0 | 0.00 | 0.00 | 0.00 | 45 | 1012.3 |
| 20260504011237 | 62 | 304 | 0.0 | 11.0 | 0.00 | 0.00 | 0.00 | 45 | 1012.3 |
| 20260504010737 | 62 | 304 | 1.0 | 6.0 | 0.00 | 0.00 | 0.00 | 45 | 1012.2 |
| 20260504010236 | 62 | 306 | 1.0 | 6.0 | 0.00 | 0.00 | 0.00 | 45 | 1012.3 |
| 20260504005737 | 62 | 298 | 1.0 | 10.0 | 0.00 | 0.00 | 0.00 | 45 | 1012.3 |
| 20260504004736 | 63 | 226 | 0.0 | 10.0 | 0.00 | 0.00 | 0.00 | 44 | 1012.4 |
| 20260504004236 | 63 | 241 | 9.0 | 10.0 | 0.00 | 0.00 | 0.00 | 44 | 1012.4 |
| 20260504003736 | 63 | 309 | 3.0 | 10.0 | 0.00 | 0.00 | 0.00 | 43 | 1012.3 |
| 20260504003236 | 64 | 275 | 2.0 | 6.0 | 0.00 | 0.00 | 0.00 | 43 | 1012.1 |
| 20260504002736 | 64 | 290 | 1.0 | 6.0 | 0.00 | 0.00 | 0.00 | 43 | 1012.1 |
| 20260504002236 | 64 | 303 | 2.0 | 9.0 | 0.00 | 0.00 | 0.00 | 42 | 1012.1 |
| 20260504001736 | 64 | 281 | 0.0 | 9.0 | 0.00 | 0.00 | 0.00 | 43 | 1012.1 |
| 20260504000235 | 65 | 275 | 3.0 | 9.0 | 0.00 | 0.00 | 0.00 | 42 | 1012.1 |
| 20260503234735 | 66 | 280 | 0.0 | 4.0 | 0.00 | 0.00 | 0.00 | 42 | 1011.8 |
| 20260503233736 | 66 | 277 | 0.0 | 5.0 | 0.00 | 0.00 | 0.00 | 41 | 1011.7 |
| 20260503233235 | 67 | 273 | 0.0 | 10.0 | 0.00 | 0.00 | 0.00 | 41 | 1011.6 |
| 20260503232735 | 67 | 261 | 2.0 | 10.0 | 0.00 | 0.00 | 0.00 | 41 | 1011.6 |
| 20260503232235 | 67 | 276 | 4.0 | 6.0 | 0.00 | 0.00 | 0.00 | 41 | 1011.6 |
| 20260503231735 | 67 | 158 | 0.0 | 5.0 | 0.00 | 0.00 | 0.00 | 40 | 1011.6 |
| 20260503231235 | 68 | 275 | 3.0 | 5.0 | 0.00 | 0.00 | 0.00 | 40 | 1011.8 |
| 20260503225735 | 67 | 184 | 0.0 | 7.0 | 0.00 | 0.00 | 0.00 | 40 | 1011.6 |
| 20260503225234 | 67 | 29 | 0.0 | 3.0 | 0.00 | 0.00 | 0.00 | 40 | 1011.7 |
| 20260503224734 | 67 | 124 | 0.0 | 6.0 | 0.00 | 0.00 | 0.00 | 40 | 1011.7 |
| 20260503224234 | 67 | 123 | 0.0 | 6.0 | 0.00 | 0.00 | 0.00 | 40 | 1011.9 |
| 20260503223735 | 67 | 132 | 0.0 | 3.0 | 0.00 | 0.00 | 0.00 | 39 | 1011.8 |
| 20260503223234 | 67 | 132 | 0.0 | 3.0 | 0.00 | 0.00 | 0.00 | 40 | 1011.8 |
| 20260503222736 | 67 | 132 | 0.0 | 4.0 | 0.00 | 0.00 | 0.00 | 40 | 1011.9 |
| 20260503221734 | 66 | 130 | 0.0 | 4.0 | 0.00 | 0.00 | 0.00 | 40 | 1012.2 |
| 20260503221234 | 66 | 131 | 0.0 | 4.0 | 0.00 | 0.00 | 0.00 | 40 | 1012.2 |
| 20260503220734 | 66 | 131 | 0.0 | 4.0 | 0.00 | 0.00 | 0.00 | 40 | 1012.3 |
| 20260503215234 | 66 | 183 | 0.0 | 3.0 | 0.00 | 0.00 | 0.00 | 40 | 1012.4 |
| 20260503214734 | 66 | 183 | 0.0 | 3.0 | 0.00 | 0.00 | 0.00 | 40 | 1012.4 |
| 20260503214234 | 66 | 183 | 0.0 | 3.0 | 0.00 | 0.00 | 0.00 | 40 | 1012.4 |
| 20260503213733 | 66 | 183 | 0.0 | 3.0 | 0.00 | 0.00 | 0.00 | 40 | 1012.3 |
| 20260503213233 | 66 | 180 | 2.0 | 7.0 | 0.00 | 0.00 | 0.00 | 40 | 1012.3 |
| 20260503212734 | 66 | 185 | 0.0 | 7.0 | 0.00 | 0.00 | 0.00 | 40 | 1012.4 |
| 20260503212233 | 66 | 129 | 1.0 | 4.0 | 0.00 | 0.00 | 0.00 | 40 | 1012.4 |
| 20260503211733 | 66 | 129 | 1.0 | 7.0 | 0.00 | 0.00 | 0.00 | 40 | 1012.4 |
| 20260503210734 | 66 | 215 | 0.0 | 6.0 | 0.00 | 0.00 | 0.00 | 39 | 1012.4 |
| 20260503205733 | 65 | 111 | 0.0 | 5.0 | 0.00 | 0.00 | 0.00 | 40 | 1012.7 |
| 20260503205233 | 66 | 108 | 0.0 | 5.0 | 0.00 | 0.00 | 0.00 | 39 | 1012.8 |
| 20260503204733 | 66 | 205 | 0.0 | 5.0 | 0.00 | 0.00 | 0.00 | 39 | 1012.8 |
| 20260503204233 | 67 | 196 | 4.0 | 7.0 | 0.00 | 0.00 | 0.00 | 38 | 1012.8 |
| 20260503203733 | 67 | 230 | 0.0 | 7.0 | 0.00 | 0.00 | 0.00 | 38 | 1012.9 |
| 20260503203233 | 67 | 170 | 7.0 | 7.0 | 0.00 | 0.00 | 0.00 | 37 | 1012.9 |
| 20260503202732 | 67 | 219 | 0.0 | 4.0 | 0.00 | 0.00 | 0.00 | 36 | 1012.9 |
| 20260503201733 | 66 | 219 | 0.0 | 4.0 | 0.00 | 0.00 | 0.00 | 36 | 1013.0 |
| 20260503201232 | 66 | 274 | 0.0 | 5.0 | 0.00 | 0.00 | 0.00 | 36 | 1013.0 |
| 20260503200733 | 65 | 165 | 0.0 | 6.0 | 0.00 | 0.00 | 0.00 | 37 | 1013.1 |
| 20260503200232 | 64 | 167 | 2.0 | 6.0 | 0.00 | 0.00 | 0.00 | 37 | 1013.1 |
| 20260503195732 | 64 | 330 | 0.0 | 3.0 | 0.00 | 0.00 | 0.00 | 37 | 1013.1 |
| 20260503195232 | 64 | 330 | 1.0 | 3.0 | 0.00 | 0.00 | 0.00 | 37 | 1013.2 |
| 20260503194733 | 64 | 330 | 1.0 | 2.0 | 0.00 | 0.00 | 0.00 | 36 | 1013.2 |
| 20260503194232 | 64 | 330 | 0.0 | 4.0 | 0.00 | 0.00 | 0.00 | 36 | 1013.3 |
| 20260503193731 | 64 | 330 | 0.0 | 4.0 | 0.00 | 0.00 | 0.00 | 35 | 1013.3 |
| 20260503193232 | 65 | 332 | 0.0 | 6.0 | 0.00 | 0.00 | 0.00 | 35 | 1013.3 |
| 20260503192731 | 65 | 331 | 1.0 | 7.0 | 0.00 | 0.00 | 0.00 | 34 | 1013.3 |
| 20260503192231 | 64 | 326 | 5.0 | 7.0 | 0.00 | 0.00 | 0.00 | 34 | 1013.4 |
| 20260503191733 | 64 | 342 | 4.0 | 6.0 | 0.00 | 0.00 | 0.00 | 33 | 1013.5 |
| 20260503190231 | 62 | 313 | 3.0 | 5.0 | 0.00 | 0.00 | 0.00 | 34 | 1013.7 |
| 20260503185731 | 62 | 313 | 0.0 | 7.0 | 0.00 | 0.00 | 0.00 | 33 | 1013.7 |
| 20260503185231 | 61 | 311 | 2.0 | 7.0 | 0.00 | 0.00 | 0.00 | 33 | 1013.7 |
| 20260503184731 | 61 | 313 | 2.0 | 5.0 | 0.00 | 0.00 | 0.00 | 33 | 1013.7 |
| 20260503184233 | 61 | 314 | 1.0 | 7.0 | 0.00 | 0.00 | 0.00 | 33 | 1013.7 |
| 20260503183731 | 61 | 313 | 2.0 | 7.0 | 0.00 | 0.00 | 0.00 | 32 | 1013.7 |
| 20260503183231 | 61 | 315 | 0.0 | 7.0 | 0.00 | 0.00 | 0.00 | 31 | 1013.7 |
| 20260503182731 | 61 | 284 | 0.0 | 7.0 | 0.00 | 0.00 | 0.00 | 31 | 1013.7 |
| 20260503182230 | 60 | 282 | 3.0 | 10.0 | 0.00 | 0.00 | 0.00 | 31 | 1013.7 |
| 20260503181730 | 60 | 307 | 3.0 | 10.0 | 0.00 | 0.00 | 0.00 | 30 | 1013.7 |
| 20260503180230 | 58 | 282 | 0.0 | 6.0 | 0.00 | 0.00 | 0.00 | 29 | 1013.6 |
| 20260503175731 | 58 | 282 | 0.0 | 6.0 | 0.00 | 0.00 | 0.00 | 29 | 1013.6 |
| 20260503174730 | 58 | 257 | 0.0 | 2.0 | 0.00 | 0.00 | 0.00 | 28 | 1013.6 |
| 20260503174230 | 58 | 259 | 0.0 | 5.0 | 0.00 | 0.00 | 0.00 | 28 | 1013.6 |
| 20260503173730 | 58 | 257 | 0.0 | 5.0 | 0.00 | 0.00 | 0.00 | 28 | 1013.6 |
| 20260503173230 | 58 | 247 | 0.0 | 3.0 | 0.00 | 0.00 | 0.00 | 27 | 1013.6 |
| 20260503172229 | 58 | 246 | 0.0 | 0.0 | 0.00 | 0.00 | 0.00 | 26 | 1013.6 |
| 20260503171729 | 58 | 246 | 0.0 | 0.0 | 0.00 | 0.00 | 0.00 | 26 | 1013.6 |
| 20260503171229 | 58 | 246 | 0.0 | 3.0 | 0.00 | 0.00 | 0.00 | 25 | 1013.6 |
| 20260503170729 | 58 | 246 | 0.0 | 3.0 | 0.00 | 0.00 | 0.00 | 25 | 1013.4 |
| 20260503170230 | 58 | 327 | 2.0 | 3.0 | 0.00 | 0.00 | 0.00 | 25 | 1013.4 |
| 20260503150227 | 56 | 327 | 0.0 | 2.0 | 0.00 | 0.00 | 0.00 | 14 | 1012.6 |
| 20260503140227 | 56 | 327 | 0.0 | 0.0 | 0.00 | 0.00 | 0.00 | 15 | 1012.1 |
| 20260503131226 | 56 | 327 | 0.0 | 0.0 | 0.00 | 0.00 | 0.00 | 16 | 1011.5 |
| 20260503130726 | 56 | 327 | 0.0 | 0.0 | 0.00 | 0.00 | 0.00 | 16 | 1011.5 |
| 20260503130226 | 56 | 327 | 0.0 | 0.0 | 0.00 | 0.00 | 0.00 | 16 | 1011.4 |
| 20260503110724 | 56 | 327 | 0.0 | 0.0 | 0.00 | 0.00 | 0.00 | 19 | 1011.5 |
| 20260503110224 | 56 | 327 | 0.0 | 0.0 | 0.00 | 0.00 | 0.00 | 19 | 1011.6 |
| 20260503090222 | 56 | 327 | 0.0 | 0.0 | 0.00 | 0.00 | 0.00 | 23 | 1011.9 |
| 20260503081222 | 56 | 327 | 0.0 | 0.0 | 0.00 | 0.00 | 0.00 | 24 | 1012.2 |
| 20260503080221 | 56 | 327 | 0.0 | 0.0 | 0.00 | 0.00 | 0.00 | 25 | 1012.3 |
| 20260503072721 | 56 | 327 | 0.0 | 0.0 | 0.00 | 0.00 | 0.00 | 24 | 1012.2 |
| 20260503071721 | 56 | 327 | 0.0 | 0.0 | 0.00 | 0.00 | 0.00 | 24 | 1012.1 |
| 20260503071221 | 56 | 327 | 0.0 | 0.0 | 0.00 | 0.00 | 0.00 | 23 | 1012.1 |
| 20260503070721 | 56 | 327 | 0.0 | 0.0 | 0.00 | 0.00 | 0.00 | 23 | 1012.0 |
| 20260503070251 | 56 | 327 | 0.0 | 0.0 | 0.00 | 0.00 | 0.00 | 22 | 1012.1 |